Weather in Vodiane

Ukraine / Zaporizhia Region     47°29′07″N   34°30′22″E
temp.,
°C
wind,
m/s
gust,
m/s
humid.,
%
clouds,
%
prec.,
mm/h
press.,
hPa
HPBL,
m
16 september, thu
thu1600:00+17nne573926 0.0 1017179
03:00+15nne45482 0.0 1017149
06:00+14nne345498 0.0 1018137
09:00+17nne3447100 0.0 1018358
12:00+20n4538100 0.0 10181205
15:00+22n243019 0.0 10171234
18:00+22n34359 0.0 1017401
21:00+19nne45420 0.0 1018136
17 september, fri
fri1700:00+17ne44450 0.0 1018110
03:00+16ese33505 0.0 1018141
06:00+14se23517 0.0 1018105
09:00+17se2237100 0.0 1017246
12:00+21nw013012 0.0 1016785
15:00+21nnw2235100 0.0 1015874
18:00+21ene2238100 0.0 101379
21:00+19sse6944100 0.0 1013237
18 september, sat
sat1800:00+17ssw695424 0.0 1013251
03:00+16ssw576513 0.0 1013178
06:00+15sse466895 0.0 1012152
09:00+18sse5755100 0.0 1012336
12:00+21ssw6843100 0.0 1012744
15:00+18ssw6950100 0.1 1012678
18:00+18s4854100 0.1 1011469
21:00+18s2360100 0.3 1011188
19 september, sun
sun1900:00+16se3582100 2.2 1011238
03:00+17s4673100 3.1 1011240
06:00+17s357067 0.1 1010232
09:00+16sse3491100 0.4 1011247
12:00+15sse5692100 2.6 1010281
15:00+20ese3468100 3.6 1009683
18:00+20ene327624 0.7 1008220
21:00+16e229296 2.4 1009135
20 september, mon
mon2000:00+17se11800 0.4 100865
03:00+17sw45785 1.2 1008148
06:00+17w568054 0.7 1009305
09:00+17wnw4476100 0.7 1009393
12:00+19wsw3463100 0.0 1010606
15:00+18ssw797456 0.3 1009452
18:00+19sw5771100 2.9 1008695
21:00+17nw7765100 3.1 1010782